Nasa Shuttle, FL

8:45 PM EDT on May 25, 2017 (GMT -0400)
Nasa Shuttle

Weather History for KTTS - August, 2013

Change the Weather History Date:

Tuesday, August 6, 2013

  Actual Average Record
Temperature  
Mean Temperature 80 °F -  
Max Temperature 91 °F 86 °F 93 °F (2007)
Min Temperature 71 °F 71 °F 71 °F (1998)
Cooling Degree Days 16    
Growing Degree Days 30 (Base 50)    
Moisture  
Dew Point 76 °F    
Average Humidity 84    
Maximum Humidity 100    
Minimum Humidity 62    
Precipitation  
Precipitation 0.00 in - - ()
Sea Level Pressure  
Sea Level Pressure 29.96 in    
Wind  
Wind Speed 3 mph (East)    
Max Wind Speed 12 mph    
Max Gust Speed -    
Visibility 10 miles    
Events Rain    
Averages and records for this station are not official NWS values.
T = Trace of Precipitation, MM = Missing Value Source: NWS Daily Summary

Daily Weather History Graph

Daily Weather History Graph

Search for Another Location

Airport or City:

Trip Planner

Search our weather history database for the weather conditions in past years. The results will help you decide how hot, cold, wet, or windy it might be!

Date:

Astronomy

Aug. 06, 2013 Rise Set
Actual Time 6:47 AM EDT 8:09 PM EDT
Civil Twilight 6:22 AM EDT 8:34 PM EDT
Nautical Twilight 5:52 AM EDT 9:04 PM EDT
Astronomical Twilight 5:20 AM EDT 9:36 PM EDT
Moon 6:32 AM EDT (8/6) 7:50 PM EDT (8/6)
Length of Visible Light 14h 12m
Length of Day
13h 22m
Waning Crescent, 0% of the Moon is Illuminated
Aug 6
Waning Crescent
Aug 6
New
Aug 14
First Quarter
Aug 20
Full
Aug 28
Last Quarter

Hourly Weather History & Observations

Time (EDT) Temp. Heat Index Dew Point Humidity Pressure Visibility Wind Dir Wind Speed Gust Speed Precip Events Conditions
12:58 AM 74.7 °F - 74.1 °F 98% 29.97 in 10.0 mi South 2.3 mph - N/A   Clear
1:58 AM 73.4 °F - 73.0 °F 99% 29.96 in 10.0 mi ENE 1.2 mph - N/A   Clear
2:58 AM 72.5 °F - 72.1 °F 99% 29.94 in 10.0 mi Calm Calm - N/A   Clear
3:58 AM 73.4 °F - 73.2 °F 99% 29.93 in 10.0 mi Calm Calm - N/A   Clear
4:58 AM 73.6 °F - 73.6 °F 100% 29.93 in 10.0 mi Calm Calm - N/A   Clear
5:58 AM 72.9 °F - 72.9 °F 100% 29.93 in 10.0 mi SSW 2.3 mph - N/A   Clear
6:58 AM 72.3 °F - 72.3 °F 100% 29.95 in 10.0 mi Calm Calm - N/A   Clear
6:59 AM 71.6 °F - 71.6 °F 100% 29.94 in 10.0 mi Calm Calm - N/A   Light Drizzle
7:07 AM 71.6 °F - 71.6 °F 100% 29.95 in 10.0 mi Calm Calm - N/A   Clear
7:58 AM 75.6 °F - 75.6 °F 100% 29.97 in 10.0 mi Calm Calm - 0.00 in   Clear
8:58 AM 79.7 °F - 79.3 °F 99% 29.97 in 10.0 mi NNE 2.3 mph - N/A   Clear
9:58 AM 84.7 °F 94.8 °F 76.8 °F 77% 29.98 in 10.0 mi ENE 1.2 mph - N/A   Clear
10:38 AM 86.0 °F 96.9 °F 77.0 °F 74% 29.98 in 10.0 mi Variable 6.9 mph - N/A   Mostly Cloudy
10:58 AM 85.1 °F 95.4 °F 76.6 °F 76% 30.00 in 10.0 mi East 4.6 mph - N/A   Mostly Cloudy
11:58 AM 87.8 °F 99.7 °F 77.0 °F 70% 29.99 in 10.0 mi Variable 3.5 mph - N/A   Scattered Clouds
12:48 PM 87.8 °F 97.6 °F 75.2 °F 66% 29.97 in 10.0 mi Variable 3.5 mph - N/A   Mostly Cloudy
12:58 PM 89.6 °F 99.8 °F 75.2 °F 62% 29.98 in 10.0 mi Variable 4.6 mph - N/A   Mostly Cloudy
1:03 PM 89.6 °F 99.8 °F 75.2 °F 62% 29.97 in 10.0 mi Variable 5.8 mph - N/A   Mostly Cloudy
1:13 PM 89.6 °F 102.2 °F 77.0 °F 66% 29.97 in 10.0 mi East 8.1 mph - N/A   Mostly Cloudy
1:58 PM 90.5 °F 102.1 °F 75.7 °F 62% 29.97 in 10.0 mi ENE 5.8 mph - N/A   Partly Cloudy
2:58 PM 89.6 °F 101.6 °F 76.3 °F 65% 29.96 in 10.0 mi East 10.4 mph - N/A   Scattered Clouds
3:58 PM 89.4 °F 102.3 °F 77.2 °F 67% 29.95 in 10.0 mi ESE 4.6 mph - N/A   Clear
4:58 PM 88.9 °F 100.9 °F 76.6 °F 67% 29.95 in 10.0 mi ESE 8.1 mph - N/A   Clear
5:58 PM 87.1 °F 96.3 °F 75.0 °F 67% 29.95 in 10.0 mi East 11.5 mph - N/A   Clear
6:58 PM 85.1 °F 94.9 °F 76.5 °F 75% 29.95 in 10.0 mi ENE 6.9 mph - N/A   Partly Cloudy
7:58 PM 81.9 °F 90.5 °F 78.1 °F 88% 29.98 in 10.0 mi East 4.6 mph - N/A   Clear
8:21 PM 80.6 °F 88.1 °F 78.8 °F 94% 29.96 in 10.0 mi East 4.6 mph - N/A Rain Light Rain
8:27 PM 80.6 °F 88.1 °F 78.8 °F 94% 29.95 in 10.0 mi East 4.6 mph - N/A   Clear
8:58 PM 80.4 °F 87.5 °F 78.6 °F 94% 29.97 in 10.0 mi East 4.6 mph - 0.00 in   Partly Cloudy
9:58 PM 78.8 °F - 76.8 °F 94% 29.98 in 10.0 mi East 4.6 mph - N/A   Partly Cloudy
10:58 PM 80.4 °F 87.0 °F 77.5 °F 91% 29.98 in 10.0 mi ESE 4.6 mph - N/A   Mostly Cloudy
11:58 PM 78.3 °F - 77.4 °F 97% 29.99 in 10.0 mi Calm Calm - N/A   Scattered Clouds